カタログに戻る

ONEWEB-0405

運用中通信PO
NORAD 50485·PAYLOAD·🇬🇧 United Kingdom

打ち上げ Dec 27, 2021 から Baikonur Cosmodrome

Loading…

次のパス (今後24時間)

TLE

最新Source: CelesTrak SupGP

元期: Sep 14, 2026, 16:33 UTC

1 50485C 21132S   26257.68973796 -.00001005  00000+0 -25523-2 0  2571
2 50485  87.9173 317.6642 0001499  98.0948  14.0825 13.18688880    11

AllMySatでONEWEB-0405をリアルタイム追跡

Download on the App Store